Regional Weather Roundup
Issued by NWS Albany, NY

Home | Current Version | Previous Version | Text Only | Print | Product List | Glossary On
Versions: 1 2 3 4 5 6 7 8 9 10 11 12 13 14 15 16 17 18 19 20 21 22 23 24 25 26 27 28
000
ASUS41 KALY 250010
RWRALY

NEW YORK STATE HOURLY WEATHER ROUNDUP
NATIONAL WEATHER SERVICE ALBANY NY
800 PM EDT SAT SEP 24 2016

NOTE: "FAIR" INDICATES FEW OR NO CLOUDS BELOW 12,000 FEET WITH NO
SIGNIFICANT WEATHER AND/OR NO OBSTRUCTIONS TO VISIBILITY.

NYZ032-033-038>043-046>054-057>066-NYZ062>081-082-084-250100-
EAST


CITY           SKY/WX    TMP DP  RH WIND       PRES   REMARKS
ALBANY         PTCLDY    53  43  68 NW5       30.14R
GLENS FALLS    CLEAR     54  38  54 NW6       30.14R
POUGHKEEPSIE   CLEAR     55  45  68 CALM      30.12R
NEWBURGH       CLEAR     57  46  67 CALM      30.14R
MONTGOMERY     PTCLDY    56  44  64 NW3       30.13R
WHITE PLAINS   CLEAR     57  46  66 CALM      30.12R
ISLIP          PTCLDY    59  47  64 N5        30.10S
NEW YORK CITY  PTCLDY    68  44  42 NE10      30.10R
CENTRAL PARK   CLEAR     63  45  51 CALM      30.13R
$$

NYZ005>009-017-018-044>046-055-056-250100-
CENTRAL


CITY           SKY/WX    TMP DP  RH WIND       PRES   REMARKS
FULTON         CLEAR     49  44  83 CALM      30.20S
SYRACUSE       PTCLDY    52  42  69 NW5       30.19S
ROME           CLEAR     50  42  74 CALM      30.20R
ELMIRA         CLEAR     56  42  59 N7        30.19R
BINGHAMTON     CLEAR     52  39  61 N7        30.19R
MONTICELLO     CLEAR     54  39  58 NW9       30.17S
$$

NYZ026>034-041>043-087-250100-
NORTH


CITY           SKY/WX    TMP DP  RH WIND       PRES   REMARKS
WATERTOWN      CLEAR     46  42  86 CALM      30.19R
FORT DRUM      NOT AVBL
OGDENSBURG     FAIR      55  42  63 NW6       30.19R
MASSENA        CLEAR     55  38  52 N6        30.19R
SARANAC LAKE   MOCLDY    46  39  76 CALM      30.15R
PLATTSBURGH    CLEAR     50  39  66 NW3       30.14R
$$

NYZ001>004-010>016-019>021-085-250100-
WEST


CITY           SKY/WX    TMP DP  RH WIND       PRES   REMARKS
NIAGARA FALLS  CLEAR     58  39  49 CALM      30.22S
BUFFALO        PTCLDY    57  38  48 NE3       30.22S
DUNKIRK        CLEAR     56  40  55 NE6       30.22S
JAMESTOWN      CLEAR     54  43  66 N6        30.22S
WELLSVILLE     CLEAR     54  42  64 CALM      30.23R
ROCHESTER      PTCLDY    54  43  66 SW3       30.22S
PENN YAN       CLEAR     53  41  63 CALM      30.22S
$$

             KEY
       WCI = WIND CHILL INDEX
       VSB = VISIBILITY
       HX  = HEAT INDEX
$$




USA.gov is the U.S. government's official web portal to all federal, state and local government web resources and services.